Regional Weather Roundup
Issued by NWS

Home | Current Version | Previous Version | Text Only | Print | Product List | Glossary Off
Versions: 1 2 3 4 5 6 7 8 9 10 11 12 13 14 15 16 17 18 19 20 21 22 23 24 25 26 27 28 29 30 31 32 33 34 35 36 37 38 39 40 41 42 43 44 45 46 47 48 49 50

000
ASUS43 KBIS 101110
RWRND

NORTH DAKOTA REGIONAL WEATHER ROUNDUP
NATIONAL WEATHER SERVICE BISMARCK ND
600 AM CDT THU JUL 10 2014

NOTE: "FAIR" INDICATES FEW OR NO CLOUDS BELOW 12,000 FEET WITH NO
SIGNIFICANT WEATHER AND/OR OBSTRUCTIONS TO VISIBILITY.


NDZ001>003-009>011-017-101200-
NORTHWEST NORTH DAKOTA

CITY           SKY/WX    TMP DP  RH WIND       PRES   REMARKS
WILLISTON      PTCLDY    67  55  65 S6        29.78S
MINOT          CLEAR     65  58  78 S15       29.83S HAZE
MINOT AFB      CLEAR     64  62  94 S8        29.82S
$$

NDZ018>021-031>035-040>046-101200-
SOUTHWEST NORTH DAKOTA

CITY           SKY/WX    TMP DP  RH WIND       PRES   REMARKS
BISMARCK       CLEAR     59  32  36 SE6       29.90S
DICKINSON      CLOUDY    59  54  83 S9        29.84F
GARRISON         N/A     63  59  87 S13       29.85F
HETTINGER ARPT MOCLDY    57  54  89 SE8       29.89F
$$

NDZ004>008-012>016-024-026-027-054-101200-
NORTHEAST NORTH DAKOTA

CITY           SKY/WX    TMP DP  RH WIND       PRES   REMARKS
GRAND FORKS    CLEAR     54  51  90 S3        29.94S
GRND FRKS AFB  CLEAR     56  53  92 S7        29.95S
DEVILS LAKE    CLEAR     63  54  72 S8        29.90S
$$

NDZ022-023-025-028>030-036>039-047>053-101200-
SOUTHEAST NORTH DAKOTA

CITY           SKY/WX    TMP DP  RH WIND       PRES   REMARKS
FARGO          CLEAR     62  51  67 S9        29.96S
JAMESTOWN      CLEAR     59  55  87 S8        29.92F
$$




USA.gov is the U.S. government's official web portal to all federal, state and local government web resources and services.